Pos.Doss.NomPrenomTempsVit.Moy.Allure Pos. catégCatégorie Points Club
1 1507 Van nieuwenhuyse Jesse 00:21:34 16.69 00:03:36 1Débutant H .......
2 301 Bovi Jean-luc 00:24:20 14.79 00:04:03 2Débutant H ....... RFCL
3 2840 Manfredini Tiber 00:25:10 14.3 00:04:12 3Débutant H .......
4 1552 Caucheteux Quentin 00:26:17 13.7 00:04:23 1Garcons 12 à 15 ans 1000 ser athl
5 1542 Lambotte Manon 00:26:41 13.49 00:04:27 1Débutante F .......
6 1519 Cupers Philippe 00:26:42 13.48 00:04:27 4Débutant H ....... team Somja
7 1526 Uhoda Romain 00:27:54 12.9 00:04:39 2Garcons 12 à 15 ans 875
8 1525 Vanbrabant Julien 00:28:08 12.8 00:04:41 5Débutant H .......
9 1557 Vitello Rosario 00:28:30 12.63 00:04:45 6Débutant H .......
10 1505 Quoirin Jonathan 00:29:29 12.21 00:04:55 3Garcons 12 à 15 ans 750 ser athl
11 1512 Degbomont Caroline 00:29:40 12.13 00:04:57 2Débutante F ....... jcpmf
12 1547 Uhoda David 00:29:58 12.01 00:04:60 4Garcons 12 à 15 ans 625
13 1560 Dewil Jean 00:30:08 11.95 00:05:01 7Débutant H ....... rfcl
14 1545 Graindorge Sarah 00:30:38 11.75 00:05:06 3Débutante F ....... ser athl
15 1544 Marchese Alexandre 00:30:38 11.75 00:05:06 8Débutant H .......
16 1535 Defechereux Arno 00:31:32 11.42 00:05:15 ? .......
17 139 Ribant Léa 00:31:37 11.39 00:05:16 1Filles 12 à 15 ans 500 Haute Fagne
18 1503 Devillet Igor 00:31:41 11.36 00:05:17 5Garcons 12 à 15 ans 375
19 1527 Ribant Thierry 00:31:49 11.31 00:05:18 9Débutant H .......
20 1514 Leruth J pierre 00:32:48 10.98 00:05:28 10Débutant H ....... jcpmf esneux
21 1548 Darimont Eric 00:32:56 10.93 00:05:29 11Débutant H .......
22 1551 Darimont Nicolas 00:33:26 10.77 00:05:34 12Débutant H .......
23 1567 Altomare Luca 00:33:34 10.72 00:05:36 6Garcons 12 à 15 ans 250
24 1533 Thirion Eric 00:33:41 10.69 00:05:37 13Débutant H ....... ser athl
25 1515 Schelfaut Francoise 00:34:05 10.56 00:05:41 4Débutante F .......
26 1565 Diliberto Matteo 00:34:23 10.47 00:05:44 7Garcons 12 à 15 ans 125 dili team
27 1541 Maboge Aurore 00:34:32 10.42 00:05:45 5Débutante F ....... jcpmf
28 1568 Perissinotto Kristy 00:36:10 9.95 00:06:02 6Débutante F .......
29 4 Fetro Elvis 00:36:40 9.82 00:06:07 14Débutant H ....... Les Rotheus
30 1518 Ghidotti Alessio 00:38:02 9.47 00:06:20 15Débutant H .......
31 1520 Dieltens Patricia 00:38:10 9.43 00:06:22 7Débutante F .......
32 1559 Mawet Perrine 00:38:23 9.38 00:06:24 8Débutante F .......
33 1558 Mawet Vincent 00:38:23 9.38 00:06:24 16Débutant H .......
34 1517 Nicolay Nathalie 00:38:33 9.34 00:06:26 9Débutante F .......
35 1504 Peiffer Sylvain 00:39:09 9.2 00:06:32 17Débutant H ....... ser athl
36 1509 Snyders Arthur 00:39:09 9.2 00:06:32 18Débutant H ....... ser athl
37 1563 Lagrotteriq Angela 00:39:22 9.14 00:06:34 10Débutante F ....... serunners
38 1502 Leclou A marie 00:39:23 9.14 00:06:34 11Débutante F ....... serunners
39 1532 Peschon Kathy 00:39:41 9.07 00:06:37 12Débutante F .......
40 1529 Vanbrabant Ingrid 00:39:41 9.07 00:06:37 13Débutante F .......
41 1554 Cornet Marc 00:39:43 9.06 00:06:37 19Débutant H .......
42 1566 Polis Gaelle 00:40:15 8.94 00:06:43 14Débutante F ....... jcpmf
43 2909 Lamy Muriel 00:40:24 8.91 00:06:44 15Débutante F .......
44 1537 Gillain Aline 00:41:49 8.61 00:06:58 16Débutante F ....... faimes
45 2847 Toussaint Jacques 00:41:51 8.6 00:06:59 20Débutant H .......
46 2971 Mathot Alain 00:41:51 8.6 00:06:59 21Débutant H .......
47 1534 Thys Genevieve 00:42:28 8.48 00:07:05 17Débutante F ....... serunners
48 252 Depreitere Hilde 00:43:38 8.25 00:07:16 ? ....... L AVENIR VERVIERS
49 1510 Jacquemin Morgane 00:44:14 8.14 00:07:22 19Débutante F ....... serunners
50 1511 Pothier Marine 00:44:14 8.14 00:07:22 20Débutante F ....... serunners
51 1562 Melard Michel 00:44:36 8.07 00:07:26 22Débutant H .......
52 1543 Liotta Beatrice 00:44:39 8.06 00:07:27 21Débutante F .......
53 1553 Hautecler Christian 00:46:50 7.69 00:07:48 23Débutant H ....... jcmpf flemalle
54 1500 Ista Irene 00:49:18 7.3 00:08:13 ? ....... serunners
55 101 Racoux Daniele 00:49:36 7.26 00:08:16 ? ....... AMC MEHAGNE
56 1546 Destat Andre 00:54:29 6.61 00:09:05 24Débutant H ....... serunners
Les 11kms de Seraing 2017
Distance : 6.0 kms
56 coureurs